Location: Bonnesvalyn
(49.1218°N, 3.3177°E)
Time: 15:41:56
(UTC+00:00)

Lacrosse 5 - Pass Details

Date: 09 February 2023
Orbit: 714 x 724 km, 57.0° (Epoch: 09 March)

Event Time Altitude Azimuth Distance (km) Brightness Sun altitude
Rises 18:16:14 0° 266° (W) 3,135 7.2 -13.4°
Reaches altitude 10° 18:18:44 10° 274° (W) 2,216 5.8 -13.9°
Maximum altitude 18:23:34 40° 344° (NNW) 1,058 2.8 -14.6°
Enters shadow 18:27:06 17° 48° (NE) 1,782 3.4 -15.2°
